Weather History for Springfield, VT

Change the Weather History Date:

Friday, November 2, 2012

  Actual Average Record
Temperature  
Mean Temperature 45 °F 42 °F  
Max Temperature 50 °F 52 °F 70 °F (2001)
Min Temperature 40 °F 32 °F 21 °F (2008)
Degree Days  
Heating Degree Days 20 23  
Month to date heating degree days 39 46  
Since 1 July heating degree days 617 855  
Cooling Degree Days 0 0  
Month to date cooling degree days 0  
Year to date cooling degree days 345  
Moisture  
Dew Point 34 °F    
Average Humidity 69    
Maximum Humidity 92    
Minimum Humidity 46    
Precipitation  
Precipitation 0.01 in 0.13 in 0.73 in (1999)
Month to date precipitation 0.02 0.26  
Year to date precipitation 30.17 36.81  
Sea Level Pressure  
Sea Level Pressure 29.58 in    
Wind  
Wind Speed 5 mph (WNW)    
Max Wind Speed 16 mph    
Max Gust Speed 22 mph    
Visibility 10 miles    
Events Rain    
T = Trace of Precipitation, MM = Missing Value Source: NWS Daily Summary

Daily Weather History Graph

Daily Weather History Graph

Search for Another Location

Airport:

Trip Planner

Search our weather history database for the weather conditions in past years. The results will help you decide how hot, cold, wet, or windy it might be!

Date:

Astronomy

Nov. 02, 2012 Rise Set
Actual Time 7:27 AM EDT 5:39 PM EDT
Civil Twilight 6:57 AM EDT 6:09 PM EDT
Nautical Twilight 6:23 AM EDT 6:43 PM EDT
Astronomical Twilight 5:50 AM EDT 7:16 PM EDT
Moon 8:20 PM EDT (11/2) 10:49 AM EDT (11/2)
Length of Visible Light 11h 12m
Length of Day
10h 12m
Waning Gibbous, 87% of the Moon is Illuminated
Nov 2
Waning Gibbous
Nov 6
Last Quarter
Nov 13
New
Nov 20
First Quarter
Nov 28
Full

Hourly Weather History & Observations

Time (EDT) Temp. Windchill Dew Point Humidity Pressure Visibility Wind Dir Wind Speed Gust Speed Precip Events Conditions
12:54 AM 44.1 °F - 39.9 °F 85% 29.55 in 9.0 mi Calm Calm - 0.00 in Rain Light Rain
1:54 AM 43.0 °F - 39.9 °F 89% 29.54 in 10.0 mi Calm Calm - 0.00 in   Overcast
2:54 AM 43.0 °F - 39.9 °F 89% 29.54 in 10.0 mi Calm Calm - N/A   Overcast
3:54 AM 42.1 °F - 39.0 °F 89% 29.54 in 10.0 mi Calm Calm - N/A   Overcast
4:54 AM 43.0 °F - 39.9 °F 89% 29.54 in 9.0 mi Calm Calm - N/A   Overcast
5:54 AM 42.1 °F - 39.0 °F 89% 29.55 in 10.0 mi Calm Calm - N/A   Overcast
6:37 AM 41.0 °F - 37.4 °F 87% 29.53 in 9.0 mi Calm Calm - N/A   Overcast
6:54 AM 39.9 °F - 37.9 °F 93% 29.55 in 6.0 mi Calm Calm - N/A   Mostly Cloudy
7:54 AM 41.0 °F 39.0 °F 37.9 °F 89% 29.57 in 10.0 mi South 3.5 mph - N/A   Overcast
8:54 AM 43.0 °F - 39.0 °F 86% 29.58 in 10.0 mi Calm Calm - N/A   Scattered Clouds
9:54 AM 46.9 °F - 36.0 °F 66% 29.57 in 10.0 mi South 4.6 mph - N/A   Mostly Cloudy
10:54 AM 48.0 °F - 30.9 °F 52% 29.57 in 10.0 mi West 11.5 mph - N/A   Overcast
11:54 AM 48.9 °F - 30.0 °F 48% 29.57 in 10.0 mi West 11.5 mph - 0.01 in   Mostly Cloudy
12:54 PM 48.9 °F - 30.0 °F 48% 29.56 in 10.0 mi WNW 8.1 mph 18.4 mph N/A   Overcast
2:54 PM 48.0 °F - 28.9 °F 48% 29.56 in 10.0 mi West 10.4 mph 17.3 mph N/A   Overcast
3:54 PM 46.9 °F - 30.9 °F 54% 29.58 in 10.0 mi NW 4.6 mph - N/A   Overcast
4:54 PM 46.9 °F - 30.0 °F 52% 29.58 in 10.0 mi NNW 4.6 mph - N/A   Overcast
5:54 PM 46.0 °F 43.9 °F 30.0 °F 54% 29.60 in 10.0 mi NW 4.6 mph - N/A   Overcast
6:54 PM 46.0 °F 41.4 °F 28.9 °F 51% 29.62 in 10.0 mi WNW 9.2 mph - 0.00 in   Overcast
7:54 PM 45.0 °F 40.6 °F 28.9 °F 53% 29.64 in 10.0 mi WNW 8.1 mph - N/A   Overcast
8:54 PM 45.0 °F 40.6 °F 28.9 °F 53% 29.65 in 10.0 mi West 8.1 mph - N/A   Overcast
9:54 PM 44.1 °F 40.8 °F 28.9 °F 55% 29.65 in 10.0 mi West 5.8 mph - N/A   Overcast
10:54 PM 44.1 °F 42.5 °F 28.9 °F 55% 29.66 in 10.0 mi West 3.5 mph - N/A   Overcast
11:54 PM 43.0 °F - 30.0 °F 60% 29.66 in 10.0 mi Calm Calm - N/A   Overcast